[[{"header":{"parameterUnit":"m.s-1","parameterCategory":1,"la1":30.2991,"la2":30.254,"lo1":-89.0895,"lo2":-89.0444,"dy":0.0017,"dx":0.0017,"nx":28,"ny":28,"refTime":"2025-07-31T03:00:00:Z","depth":0,"parameterNumber":2,"parameterNumberName":"U-component_of_WINDS"},"data":[0,0,0,0,0,0,0,0,0,0,0,0,0,0,0,0,0,0,0,0,0,0,0,0,0,0,0,0,0,0,0,0,0,0,0,0,0,0,0,0,0,0,0,0,0,0,0,0,0,0,0,0,0,0,0,0,0,0,3.2115,3.2115,0,3.2177,3.2178,3.2178,3.2118,3.2115,3.2113,3.2111,3.2176,3.2179,3.2183,0,0,0,0,0,0,0,0,0,0,0,0,0,3.1944,3.1948,3.2115,3.2115,3.2116,3.2177,3.2178,3.2179,3.2118,3.2115,3.2112,3.211,3.2174,3.2179,3.2184,0,0,0,0,0,0,0,0,0,0,0,0,0,3.2014,3.1949,3.2115,3.2093,3.2092,3.2177,3.2178,3.2179,3.2119,3.2115,3.2112,3.2108,3.2173,3.2178,3.2184,3.2293,0,0,3.2203,3.2205,0,0,0,0,0,0,0,0,3.201,3.202,3.2096,3.2095,3.2094,3.2136,3.2141,3.2217,3.212,3.2109,3.2111,3.2106,3.2165,3.2172,3.2191,3.2296,3.2299,3.2203,3.2207,3.2209,3.2211,0,0,0,0,0,0,0,3.2005,3.2017,3.2139,3.2097,3.2096,3.2081,3.2087,3.2156,3.2157,3.2109,3.2105,3.2113,3.2164,3.2186,3.2192,3.23,3.2203,3.2208,3.2212,3.2214,3.2497,3.2501,0,0,0,0,0,0,3.2003,3.2013,3.2137,3.2141,3.2042,3.2087,3.2094,3.2126,3.2156,3.2157,3.2116,3.211,3.2177,3.2186,3.2194,3.2323,3.2209,3.2215,3.2218,3.2493,3.2498,3.2502,0,0,0,0,0,0,3.1999,3.2014,3.2135,3.2076,3.209,3.2094,3.2131,3.2129,3.2151,3.2161,3.2161,3.2138,3.2175,3.2186,3.2269,3.2324,3.2217,3.2223,3.2488,3.2495,3.25,3.2581,0,0,0,0,0,0,3.1995,3.2013,3.2054,3.2078,3.2094,3.2208,3.2134,3.2133,3.2161,3.2154,3.2181,3.2182,3.2173,3.226,3.2275,3.2331,3.2227,3.2483,3.2491,3.2498,3.2574,3.2589,3.2603,0,0,0,0,0,3.1989,3.2075,3.2057,3.2072,3.2145,3.2211,3.2221,3.2208,3.2166,3.2207,3.2214,3.2181,3.2316,3.2269,3.2285,3.2344,3.248,3.2489,3.2498,3.2567,3.2586,3.2602,0,0,0,0,0,0,3.2058,3.2078,3.2058,3.2154,3.2182,3.2201,3.2253,3.2228,3.2268,3.226,3.2243,3.2249,3.2337,3.2349,3.2296,3.245,3.2391,3.2404,3.2439,3.2457,3.2471,3.2466,3.2232,0,0,0,0,0,3.2085,3.2137,3.2151,3.2235,3.225,3.2249,3.2278,3.2265,3.2293,3.2304,3.2317,3.2346,3.2394,3.2427,3.2472,3.2576,3.2581,3.2624,3.2638,3.265,3.2661,3.2716,3.2735,3.2531,3.2531,3.2531,0,0,3.2141,3.2158,3.2191,3.225,3.2269,3.2323,3.2259,3.2319,3.2359,3.2314,3.2392,3.2403,3.2434,3.2527,3.2569,3.254,3.2718,3.2662,3.2671,3.2675,3.2727,3.2746,3.2763,3.2537,3.2536,3.2535,0,0,3.2269,3.2287,3.2359,3.238,3.2411,3.241,3.2427,3.2451,3.2456,3.2534,3.2501,3.2549,3.2633,3.2656,3.2679,3.2818,3.2789,3.2833,3.2908,3.2962,3.2978,3.2992,3.304,3.3058,3.2844,3.2844,3.2844,0,3.2334,3.2413,3.2399,3.2461,3.2487,3.2449,3.2521,3.2542,3.2587,3.2606,3.2573,3.2678,3.2696,3.2794,3.2828,3.2848,3.2867,3.2829,3.2977,3.2991,3.3004,3.305,3.3068,3.2849,3.2848,3.2848,3.2848,0,3.2491,3.2547,3.2601,3.2644,3.2677,3.2745,3.274,3.2775,3.2761,3.2764,3.2844,3.2865,3.2913,3.2936,3.2923,3.3033,3.3013,3.2979,3.2919,3.3028,3.3071,3.3089,3.2856,3.2854,3.2853,3.2852,0,0,3.2663,3.2698,3.2718,3.2737,3.2768,3.2812,3.2878,3.2925,3.2955,3.2987,3.3042,3.3115,3.3083,3.3109,3.3098,3.3146,3.3253,3.3105,3.3106,3.3131,3.3374,3.3398,3.3419,3.3235,3.3238,3.3241,3.3371,0,3.2791,3.2904,3.2893,3.3,3.3052,3.3017,3.3074,3.31,3.3105,3.3149,3.3155,3.3206,3.3161,3.3177,3.3223,3.323,3.3301,3.3221,3.3285,3.3287,3.3276,3.3441,3.3467,3.3589,3.3388,3.3391,3.3393,0,3.2955,3.2992,3.3105,3.3129,3.315,3.3201,3.3244,3.3287,3.3316,3.3316,3.3346,3.3327,3.3393,3.3334,3.3425,3.337,3.3396,3.3404,3.3409,3.3412,3.3345,3.3448,3.3627,3.3645,3.3419,3.3417,3.3415,0,3.3067,3.3146,3.3223,3.3241,3.3271,3.3308,3.3322,3.3348,3.3377,3.3415,3.3433,3.3479,3.3503,3.3539,3.3533,3.349,3.3626,3.3566,3.3627,3.3628,3.3656,3.3654,3.384,3.3676,3.3676,3.3675,3.3675,0,3.3209,3.3279,3.3274,3.3321,3.3399,3.3386,3.3463,3.3473,3.3497,3.3545,3.3519,3.3565,3.3555,3.3602,3.3598,3.3674,3.3686,3.3687,3.3685,3.3689,3.3688,3.3704,3.3695,3.368,3.3679,3.3678,3.3677,0,3.3347,3.3346,3.3428,3.345,3.3457,3.3513,3.3532,3.3577,3.358,3.3643,3.3657,3.3662,3.3715,3.3714,3.3775,3.3772,3.3865,3.3854,3.3854,3.3851,3.3913,3.3906,3.4114,3.414,3.3961,3.3963,3.3964,0,3.3437,3.349,3.3518,3.3548,3.3565,3.3615,3.3644,3.3635,3.3667,3.3704,3.3745,3.3796,3.3836,3.3923,3.3933,3.3979,3.3968,3.4038,3.3975,3.3977,3.3968,3.3964,3.3969,3.405,3.4052,3.4053,3.4055,0,3.3596,3.3594,3.3637,3.3681,3.3717,3.3751,3.3782,3.3809,3.3803,3.3841,3.3895,3.3926,3.3988,3.4039,3.4084,3.4099,3.4076,3.4075,3.4091,3.4094,3.4092,3.4093,3.3886,3.4069,3.4068,3.4067,3.4066,3.4065,3.3712,3.3757,3.3783,3.3833,3.3855,3.3885,3.3928,3.3937,3.3982,3.4031,3.4024,3.4084,3.4113,3.417,3.419,3.4237,3.4213,3.4237,3.4243,3.4248,3.4255,3.4086,3.4246,3.4246,3.4245,3.4245,3.4244,0,3.3868,3.3884,3.393,3.3974,3.4013,3.3988,3.4022,3.4056,3.411,3.4138,3.4178,3.4241,3.429,3.4304,3.4352,3.4387,3.4378,3.44,3.4397,3.44,3.4275,3.4255,3.4407,3.4407,3.4407,3.4407,3.4407,3.4407,3.3954,3.4029,3.4029,3.4115,3.4131,3.4189,3.421,3.4238,3.426,3.4331,3.4372,3.4381,3.4404,3.4453,3.4498,3.4501,3.4519,3.4545,3.4544,3.4426,3.4409,3.4394,3.4375,3.455,3.455,3.4665,3.4666,3.4667]},{"header":{"parameterUnit":"m.s-1","parameterCategory":1,"la1":30.2991,"la2":30.254,"lo1":-89.0895,"lo2":-89.0444,"dy":0.0017,"dx":0.0017,"nx":28,"ny":28,"refTime":"2025-07-31T03:00:00:Z","depth":0,"parameterNumber":3,"parameterNumberName":"V-component_of_WINDS"},"data":[0,0,0,0,0,0,0,0,0,0,0,0,0,0,0,0,0,0,0,0,0,0,0,0,0,0,0,0,0,0,0,0,0,0,0,0,0,0,0,0,0,0,0,0,0,0,0,0,0,0,0,0,0,0,0,0,0,0,2.5001,2.5004,0,2.5301,2.5304,2.5308,2.5396,2.5394,2.5393,2.5391,2.57,2.5709,2.5719,0,0,0,0,0,0,0,0,0,0,0,0,0,2.4504,2.4513,2.5,2.5004,2.5008,2.53,2.5304,2.5308,2.5396,2.5394,2.5392,2.5391,2.5697,2.5708,2.572,0,0,0,0,0,0,0,0,0,0,0,0,0,2.4754,2.4516,2.5,2.5087,2.5098,2.5299,2.5305,2.531,2.5397,2.5394,2.5392,2.539,2.5693,2.5707,2.5721,2.5858,0,0,2.5766,2.5772,0,0,0,0,0,0,0,0,2.4739,2.4772,2.507,2.5081,2.5094,2.5309,2.5243,2.5494,2.5397,2.5283,2.5391,2.5389,2.5572,2.5596,2.5658,2.5873,2.5886,2.5767,2.5776,2.5782,2.5786,0,0,0,0,0,0,0,2.4722,2.4759,2.5119,2.5074,2.5089,2.5112,2.5144,2.5291,2.5437,2.5293,2.53,2.5334,2.5578,2.5643,2.5665,2.5891,2.5767,2.578,2.5789,2.5794,2.6235,2.6237,0,0,0,0,0,0,2.469,2.4744,2.511,2.5128,2.4907,2.5122,2.5159,2.5242,2.5436,2.5463,2.5336,2.5337,2.562,2.5648,2.5677,2.5851,2.5782,2.5796,2.5804,2.6232,2.6235,2.6238,0,0,0,0,0,0,2.4679,2.4721,2.5098,2.4939,2.4988,2.5133,2.5226,2.5249,2.5315,2.5468,2.5495,2.5376,2.5619,2.5656,2.5813,2.5863,2.5802,2.5815,2.6228,2.6233,2.6237,2.62,0,0,0,0,0,0,2.4664,2.4717,2.477,2.4939,2.4996,2.5228,2.5229,2.5257,2.534,2.5344,2.5513,2.5539,2.562,2.5791,2.5827,2.5882,2.5827,2.6224,2.623,2.6235,2.6197,2.6202,2.6207,0,0,0,0,0,2.4646,2.4748,2.4772,2.4816,2.5066,2.5231,2.5264,2.5355,2.5343,2.5398,2.5497,2.5533,2.5851,2.5806,2.5848,2.5908,2.6222,2.6228,2.6235,2.6195,2.6201,2.6207,0,0,0,0,0,0,2.4582,2.4771,2.4801,2.496,2.5079,2.5245,2.5318,2.5358,2.5483,2.5482,2.559,2.5627,2.5776,2.5858,2.5804,2.6051,2.6037,2.6053,2.5993,2.6,2.6005,2.5983,2.5839,0,0,0,0,0,2.4585,2.4703,2.4863,2.4988,2.5046,2.5171,2.5247,2.5307,2.5434,2.5485,2.5595,2.5717,2.5845,2.5927,2.6052,2.6209,2.6247,2.627,2.6275,2.6278,2.6291,2.6381,2.6393,2.626,2.626,2.626,0,0,2.4596,2.4714,2.4782,2.4978,2.5077,2.5198,2.5213,2.5339,2.543,2.5504,2.5659,2.5744,2.5888,2.6045,2.6119,2.6117,2.6336,2.6287,2.6288,2.63,2.6389,2.6402,2.6413,2.6265,2.6264,2.6263,0,0,2.4676,2.4776,2.4893,2.4991,2.5141,2.5223,2.5251,2.5412,2.5471,2.5628,2.5686,2.5795,2.6013,2.6113,2.6193,2.6311,2.6349,2.6348,2.6374,2.6461,2.6471,2.6481,2.6525,2.6539,2.636,2.636,2.636,0,2.467,2.4853,2.4947,2.5071,2.5156,2.5228,2.5347,2.5438,2.5621,2.5678,2.5672,2.5947,2.6049,2.6231,2.626,2.6321,2.6357,2.633,2.6462,2.6473,2.6483,2.6526,2.6542,2.6359,2.6359,2.6359,2.6359,0,2.4839,2.4965,2.5041,2.5215,2.5309,2.5429,2.5542,2.5625,2.5677,2.576,2.5919,2.6044,2.6197,2.6244,2.6295,2.6434,2.6428,2.644,2.643,2.6494,2.6536,2.6553,2.6358,2.6358,2.6358,2.6358,0,0,2.4888,2.5113,2.5139,2.522,2.539,2.5489,2.5613,2.5762,2.5832,2.5956,2.6063,2.6245,2.6258,2.6348,2.6411,2.6487,2.6574,2.6491,2.6496,2.6503,2.6736,2.6727,2.6744,2.66,2.6603,2.6606,2.6725,0,2.4991,2.5215,2.5303,2.5486,2.5604,2.5674,2.5782,2.5898,2.5979,2.6092,2.6181,2.6309,2.6316,2.6371,2.6449,2.6547,2.6623,2.6539,2.6702,2.6707,2.6666,2.6766,2.6757,2.6862,2.6741,2.6744,2.6746,0,2.5141,2.5266,2.546,2.5616,2.5669,2.5765,2.5909,2.6016,2.6149,2.6203,2.6303,2.6362,2.6495,2.6474,2.666,2.6601,2.6673,2.6731,2.6737,2.6758,2.6732,2.679,2.6898,2.6914,2.6773,2.6771,2.6769,0,2.5159,2.5376,2.5521,2.5587,2.5772,2.5838,2.5918,2.6049,2.6134,2.6259,2.6316,2.6455,2.6532,2.6639,2.6734,2.6709,2.6911,2.6898,2.6961,2.6958,2.7001,2.6998,2.7124,2.7044,2.7044,2.7044,2.7043,0,2.5266,2.5383,2.5531,2.562,2.5753,2.5853,2.5982,2.6067,2.6183,2.629,2.6359,2.6458,2.6577,2.6692,2.6767,2.691,2.6944,2.6992,2.7011,2.6987,2.6981,2.7036,2.7032,2.7048,2.7047,2.7046,2.7045,0,2.531,2.5414,2.5576,2.5738,2.5781,2.5872,2.6011,2.6101,2.6184,2.6319,2.6357,2.6489,2.6627,2.6732,2.6912,2.6963,2.7116,2.7135,2.707,2.7081,2.7138,2.7132,2.7306,2.7334,2.7233,2.7234,2.7235,0,2.5372,2.5463,2.5635,2.5711,2.5791,2.5914,2.6,2.6102,2.6189,2.6348,2.6418,2.6562,2.6682,2.69,2.7013,2.7151,2.7175,2.7226,2.7196,2.717,2.7178,2.7172,2.7182,2.723,2.7231,2.7232,2.7232,0,2.5471,2.5518,2.564,2.578,2.5881,2.5996,2.6112,2.6171,2.6294,2.6388,2.6531,2.6624,2.6808,2.695,2.71,2.7183,2.7229,2.724,2.7263,2.724,2.72,2.7224,2.7083,2.7236,2.7236,2.7236,2.7235,2.7235,2.5528,2.5613,2.5747,2.588,2.5978,2.6085,2.6178,2.6273,2.6393,2.6551,2.6603,2.6751,2.6883,2.7088,2.7173,2.729,2.7291,2.7323,2.7331,2.7338,2.7337,2.7179,2.7318,2.7318,2.7318,2.7318,2.7318,0,2.5633,2.5722,2.5844,2.6004,2.6109,2.6142,2.6273,2.6359,2.6487,2.6606,2.6723,2.6887,2.7025,2.7148,2.7292,2.7362,2.7387,2.7396,2.7393,2.7412,2.7327,2.7294,2.7374,2.7374,2.7374,2.7374,2.7374,2.7374,2.57,2.5845,2.5908,2.6103,2.6192,2.6337,2.6409,2.6509,2.6604,2.6784,2.6899,2.6978,2.7099,2.7252,2.738,2.7413,2.7464,2.7468,2.7506,2.7425,2.7418,2.7411,2.7381,2.7478,2.7478,2.7582,2.7583,2.7584]}]]